| time (UTC) | temp C | wind direction | speed KPH | gust KPH | rain 1hr cm | rain 24hr cm | rain mn cm | humidity % | barometer mb |
| 20260508100505 | 15 | 292 | 0.0 | 3.2 | 0.00 | 0.00 | 0.00 | 68 | 1014.6 |
| 20260508100005 | 15 | 0 | 0.0 | 0.0 | 0.00 | 0.00 | 0.00 | 70 | 1014.7 |
| 20260508095505 | 14 | 0 | 0.0 | 0.0 | 0.00 | 0.00 | 0.00 | 74 | 1014.7 |
| 20260508095004 | 14 | 0 | 0.0 | 0.0 | 0.00 | 0.00 | 0.00 | 73 | 1014.8 |
| 20260508094506 | 13 | 57 | 0.0 | 3.2 | 0.00 | 0.00 | 0.00 | 73 | 1014.8 |
| 20260508093505 | 13 | 45 | 1.6 | 6.4 | 0.00 | 0.00 | 0.00 | 73 | 1014.8 |
| 20260508093005 | 13 | 37 | 1.6 | 6.4 | 0.00 | 0.00 | 0.00 | 73 | 1014.7 |
| 20260508092506 | 13 | 22 | 0.0 | 1.6 | 0.00 | 0.00 | 0.00 | 74 | 1014.7 |
| 20260508092004 | 13 | 359 | 0.0 | 4.8 | 0.00 | 0.00 | 0.00 | 75 | 1014.7 |
| 20260508091505 | 13 | 359 | 0.0 | 4.8 | 0.00 | 0.00 | 0.00 | 74 | 1014.8 |
| 20260508091005 | 12 | 0 | 0.0 | 0.0 | 0.00 | 0.00 | 0.00 | 75 | 1014.8 |
| 20260508090006 | 12 | 0 | 0.0 | 0.0 | 0.00 | 0.00 | 0.00 | 75 | 1014.6 |
| 20260508085505 | 12 | 0 | 0.0 | 0.0 | 0.00 | 0.00 | 0.00 | 76 | 1014.7 |
| 20260508085004 | 12 | 28 | 0.0 | 1.6 | 0.00 | 0.00 | 0.00 | 75 | 1014.7 |
| 20260508084505 | 12 | 28 | 0.0 | 1.6 | 0.00 | 0.00 | 0.00 | 73 | 1014.7 |
| 20260508084005 | 12 | 24 | 1.6 | 4.8 | 0.00 | 0.00 | 0.00 | 74 | 1014.7 |
| 20260508083505 | 13 | 22 | 1.6 | 4.8 | 0.00 | 0.00 | 0.00 | 73 | 1014.8 |
| 20260508083005 | 13 | 19 | 0.0 | 4.8 | 0.00 | 0.00 | 0.00 | 73 | 1014.7 |
| 20260508082506 | 13 | 37 | 0.0 | 3.2 | 0.00 | 0.00 | 0.00 | 74 | 1014.7 |
| 20260508082005 | 13 | 37 | 0.0 | 3.2 | 0.00 | 0.00 | 0.00 | 74 | 1014.5 |
| 20260508081505 | 13 | 37 | 0.0 | 3.2 | 0.00 | 0.00 | 0.00 | 72 | 1014.6 |
| 20260508081005 | 13 | 36 | 0.0 | 3.2 | 0.00 | 0.00 | 0.00 | 74 | 1014.5 |
| 20260508080505 | 12 | 0 | 0.0 | 0.0 | 0.00 | 0.00 | 0.00 | 73 | 1014.7 |
| 20260508080004 | 12 | 0 | 0.0 | 0.0 | 0.00 | 0.00 | 0.00 | 75 | 1014.6 |
| 20260508075506 | 12 | 0 | 0.0 | 0.0 | 0.00 | 0.00 | 0.00 | 74 | 1014.6 |
| 20260508075005 | 12 | 0 | 0.0 | 0.0 | 0.00 | 0.00 | 0.00 | 75 | 1014.5 |
| 20260508074004 | 12 | 0 | 0.0 | 0.0 | 0.00 | 0.00 | 0.00 | 75 | 1014.3 |
| 20260508073505 | 12 | 0 | 0.0 | 0.0 | 0.00 | 0.00 | 0.00 | 75 | 1014.2 |
| 20260508073005 | 12 | 0 | 0.0 | 0.0 | 0.00 | 0.00 | 0.00 | 75 | 1014.2 |
| 20260508072505 | 12 | 0 | 0.0 | 0.0 | 0.00 | 0.00 | 0.00 | 77 | 1014.2 |
| 20260508072005 | 12 | 0 | 0.0 | 0.0 | 0.00 | 0.00 | 0.00 | 77 | 1014.2 |
| 20260508071505 | 11 | 0 | 0.0 | 0.0 | 0.00 | 0.00 | 0.00 | 77 | 1014.2 |
| 20260508071004 | 11 | 0 | 0.0 | 0.0 | 0.00 | 0.00 | 0.00 | 80 | 1014.1 |
| 20260508070005 | 10 | 0 | 0.0 | 0.0 | 0.00 | 0.00 | 0.00 | 82 | 1014.0 |
| 20260508065504 | 10 | 0 | 0.0 | 0.0 | 0.00 | 0.00 | 0.00 | 83 | 1014.0 |
| 20260508065004 | 10 | 0 | 0.0 | 0.0 | 0.00 | 0.00 | 0.00 | 86 | 1014.1 |
| 20260508064506 | 9 | 0 | 0.0 | 0.0 | 0.00 | 0.00 | 0.00 | 88 | 1014.0 |
| 20260508064004 | 8 | 0 | 0.0 | 0.0 | 0.00 | 0.00 | 0.00 | 90 | 1014.0 |
| 20260508063505 | 8 | 0 | 0.0 | 0.0 | 0.00 | 0.00 | 0.00 | 92 | 1013.9 |
| 20260508063004 | 7 | 0 | 0.0 | 0.0 | 0.00 | 0.00 | 0.00 | 92 | 1013.9 |
| 20260508062505 | 7 | 0 | 0.0 | 0.0 | 0.00 | 0.00 | 0.00 | 91 | 1014.0 |
| 20260508062004 | 7 | 0 | 0.0 | 0.0 | 0.00 | 0.00 | 0.00 | 91 | 1013.9 |
| 20260508061505 | 6 | 0 | 0.0 | 0.0 | 0.00 | 0.00 | 0.00 | 91 | 1013.9 |
| 20260508061004 | 6 | 0 | 0.0 | 0.0 | 0.00 | 0.00 | 0.00 | 92 | 1013.8 |
| 20260508060505 | 6 | 0 | 0.0 | 0.0 | 0.00 | 0.00 | 0.00 | 93 | 1013.8 |
| 20260508060005 | 5 | 0 | 0.0 | 0.0 | 0.00 | 0.00 | 0.00 | 93 | 1013.8 |
| 20260508055505 | 5 | 0 | 0.0 | 0.0 | 0.00 | 0.00 | 0.00 | 93 | 1013.8 |
| 20260508054505 | 5 | 0 | 0.0 | 0.0 | 0.00 | 0.00 | 0.00 | 92 | 1013.6 |
| 20260508054004 | 5 | 0 | 0.0 | 0.0 | 0.00 | 0.00 | 0.00 | 92 | 1013.5 |
| 20260508053505 | 5 | 0 | 0.0 | 0.0 | 0.00 | 0.00 | 0.00 | 92 | 1013.4 |
| 20260508053005 | 5 | 0 | 0.0 | 0.0 | 0.00 | 0.00 | 0.00 | 93 | 1013.4 |
| 20260508052005 | 4 | 0 | 0.0 | 0.0 | 0.00 | 0.00 | 0.00 | 92 | 1013.4 |
| 20260508051505 | 4 | 0 | 0.0 | 0.0 | 0.00 | 0.00 | 0.00 | 91 | 1013.4 |
| 20260508051004 | 4 | 0 | 0.0 | 0.0 | 0.00 | 0.00 | 0.00 | 90 | 1013.3 |
| 20260508050505 | 4 | 0 | 0.0 | 0.0 | 0.00 | 0.00 | 0.00 | 90 | 1013.4 |
| 20260508045505 | 4 | 0 | 0.0 | 0.0 | 0.00 | 0.00 | 0.00 | 91 | 1013.4 |
| 20260508045004 | 4 | 0 | 0.0 | 0.0 | 0.00 | 0.00 | 0.00 | 91 | 1013.5 |
| 20260508044505 | 4 | 0 | 0.0 | 0.0 | 0.00 | 0.00 | 0.00 | 91 | 1013.3 |
| 20260508044004 | 4 | 0 | 0.0 | 0.0 | 0.00 | 0.00 | 0.00 | 91 | 1013.4 |
| 20260508042505 | 5 | 0 | 0.0 | 0.0 | 0.00 | 0.00 | 0.00 | 91 | 1013.4 |
| 20260508042004 | 5 | 0 | 0.0 | 0.0 | 0.00 | 0.00 | 0.00 | 91 | 1013.2 |
| 20260508041505 | 5 | 0 | 0.0 | 0.0 | 0.00 | 0.00 | 0.00 | 91 | 1013.1 |
| 20260508040505 | 5 | 0 | 0.0 | 0.0 | 0.00 | 0.00 | 0.00 | 90 | 1013.0 |
| 20260508040004 | 5 | 0 | 0.0 | 0.0 | 0.00 | 0.00 | 0.00 | 90 | 1013.0 |
| 20260508035505 | 5 | 0 | 0.0 | 0.0 | 0.00 | 0.00 | 0.00 | 90 | 1013.1 |
| 20260508035005 | 5 | 0 | 0.0 | 0.0 | 0.00 | 0.00 | 0.00 | 90 | 1013.0 |
| 20260508034505 | 5 | 0 | 0.0 | 0.0 | 0.00 | 0.00 | 0.00 | 90 | 1013.1 |
| 20260508034004 | 5 | 0 | 0.0 | 0.0 | 0.00 | 0.00 | 0.00 | 90 | 1013.1 |
| 20260508033504 | 5 | 0 | 0.0 | 0.0 | 0.00 | 0.00 | 0.00 | 90 | 1013.0 |
| 20260508033004 | 5 | 0 | 0.0 | 0.0 | 0.00 | 0.00 | 0.00 | 90 | 1013.1 |
| 20260508032504 | 5 | 0 | 0.0 | 0.0 | 0.00 | 0.00 | 0.00 | 91 | 1013.0 |
| 20260508032004 | 5 | 0 | 0.0 | 0.0 | 0.00 | 0.00 | 0.00 | 90 | 1013.0 |
| 20260508031506 | 5 | 0 | 0.0 | 0.0 | 0.00 | 0.00 | 0.00 | 90 | 1013.0 |
| 20260508030004 | 5 | 0 | 0.0 | 0.0 | 0.00 | 0.00 | 0.00 | 88 | 1013.0 |
| 20260508025504 | 6 | 0 | 0.0 | 0.0 | 0.00 | 0.00 | 0.00 | 87 | 1013.0 |
| 20260508025004 | 6 | 0 | 0.0 | 0.0 | 0.00 | 0.00 | 0.00 | 86 | 1013.0 |
| 20260508024505 | 6 | 0 | 0.0 | 0.0 | 0.00 | 0.00 | 0.00 | 87 | 1013.1 |
| 20260508024004 | 6 | 0 | 0.0 | 0.0 | 0.00 | 0.00 | 0.00 | 88 | 1013.1 |
| 20260508023506 | 6 | 0 | 0.0 | 0.0 | 0.00 | 0.00 | 0.00 | 87 | 1013.1 |
| 20260508022505 | 7 | 0 | 0.0 | 0.0 | 0.00 | 0.00 | 0.00 | 87 | 1013.1 |
| 20260508022004 | 7 | 0 | 0.0 | 0.0 | 0.00 | 0.00 | 0.00 | 86 | 1013.1 |
| 20260508021504 | 7 | 0 | 0.0 | 0.0 | 0.00 | 0.00 | 0.00 | 86 | 1013.0 |
| 20260508020505 | 7 | 0 | 0.0 | 0.0 | 0.00 | 0.00 | 0.00 | 87 | 1013.1 |
| 20260508020004 | 7 | 0 | 0.0 | 0.0 | 0.00 | 0.00 | 0.00 | 87 | 1013.1 |
| 20260508015505 | 7 | 0 | 0.0 | 0.0 | 0.00 | 0.00 | 0.00 | 87 | 1013.2 |
| 20260508014505 | 8 | 0 | 0.0 | 0.0 | 0.00 | 0.00 | 0.00 | 84 | 1013.2 |
| 20260508014004 | 8 | 0 | 0.0 | 0.0 | 0.00 | 0.00 | 0.00 | 85 | 1013.1 |
| 20260508013505 | 8 | 0 | 0.0 | 0.0 | 0.00 | 0.00 | 0.00 | 85 | 1013.1 |
| 20260508013005 | 8 | 0 | 0.0 | 0.0 | 0.00 | 0.00 | 0.00 | 85 | 1013.2 |
| 20260508012004 | 8 | 0 | 0.0 | 0.0 | 0.00 | 0.00 | 0.00 | 85 | 1013.1 |
| 20260508011506 | 8 | 0 | 0.0 | 0.0 | 0.00 | 0.00 | 0.00 | 85 | 1013.0 |
| 20260508010505 | 8 | 0 | 0.0 | 0.0 | 0.00 | 0.00 | 0.00 | 84 | 1013.2 |
| 20260508010005 | 8 | 0 | 0.0 | 0.0 | 0.00 | 0.00 | 0.00 | 84 | 1013.2 |
| 20260508005505 | 8 | 0 | 0.0 | 0.0 | 0.00 | 0.00 | 0.00 | 84 | 1013.2 |
| 20260508005004 | 8 | 0 | 0.0 | 0.0 | 0.00 | 0.00 | 0.00 | 84 | 1013.2 |
| 20260508004505 | 8 | 0 | 0.0 | 0.0 | 0.00 | 0.00 | 0.00 | 84 | 1013.2 |
| 20260508004004 | 8 | 0 | 0.0 | 0.0 | 0.00 | 0.00 | 0.00 | 84 | 1013.2 |
| 20260508003505 | 8 | 0 | 0.0 | 0.0 | 0.00 | 0.00 | 0.00 | 84 | 1013.1 |
| 20260508003005 | 8 | 0 | 0.0 | 0.0 | 0.00 | 0.00 | 0.00 | 83 | 1013.2 |
| 20260508001505 | 9 | 0 | 0.0 | 0.0 | 0.00 | 0.00 | 0.00 | 83 | 1013.2 |
| 20260508000506 | 9 | 0 | 0.0 | 0.0 | 0.00 | 0.00 | 0.00 | 82 | 1013.1 |
| 20260508000004 | 9 | 0 | 0.0 | 0.0 | 0.00 | 0.00 | 0.00 | 82 | 1013.2 |
| 20260507235504 | 9 | 0 | 0.0 | 0.0 | 0.00 | 0.00 | 0.00 | 82 | 1013.2 |
| 20260507235004 | 9 | 0 | 0.0 | 0.0 | 0.00 | 0.00 | 0.00 | 82 | 1013.2 |
| 20260507234505 | 9 | 218 | 0.0 | 4.8 | 0.00 | 0.00 | 0.00 | 82 | 1013.2 |
| 20260507234003 | 9 | 218 | 0.0 | 4.8 | 0.00 | 0.00 | 0.00 | 82 | 1013.3 |
| 20260507233506 | 9 | 218 | 0.0 | 3.2 | 0.00 | 0.00 | 0.00 | 82 | 1013.2 |
| 20260507233004 | 9 | 215 | 0.0 | 4.8 | 0.00 | 0.00 | 0.00 | 82 | 1013.2 |
| 20260507232505 | 9 | 213 | 1.6 | 4.8 | 0.00 | 0.00 | 0.00 | 82 | 1013.2 |
| 20260507232003 | 9 | 212 | 1.6 | 4.8 | 0.00 | 0.00 | 0.00 | 82 | 1013.2 |
| 20260507231505 | 9 | 210 | 0.0 | 3.2 | 0.00 | 0.00 | 0.00 | 82 | 1013.3 |
| 20260507231004 | 9 | 0 | 0.0 | 0.0 | 0.00 | 0.00 | 0.00 | 82 | 1013.2 |
| 20260507230505 | 9 | 0 | 0.0 | 0.0 | 0.00 | 0.00 | 0.00 | 82 | 1013.3 |
| 20260507230004 | 9 | 0 | 0.0 | 0.0 | 0.00 | 0.00 | 0.00 | 82 | 1013.3 |
| 20260507225507 | 9 | 0 | 0.0 | 0.0 | 0.00 | 0.00 | 0.00 | 82 | 1013.3 |
| 20260507225004 | 9 | 0 | 0.0 | 0.0 | 0.00 | 0.00 | 0.00 | 82 | 1013.3 |
| 20260507224505 | 9 | 0 | 0.0 | 0.0 | 0.00 | 0.00 | 0.00 | 82 | 1013.2 |
| 20260507223504 | 9 | 0 | 0.0 | 0.0 | 0.00 | 0.00 | 0.00 | 81 | 1013.1 |
| 20260507223003 | 9 | 0 | 0.0 | 0.0 | 0.00 | 0.00 | 0.00 | 81 | 1013.1 |
| 20260507222504 | 9 | 0 | 0.0 | 0.0 | 0.00 | 0.00 | 0.00 | 81 | 1013.0 |
| 20260507222006 | 9 | 0 | 0.0 | 0.0 | 0.00 | 0.00 | 0.00 | 81 | 1013.1 |
| 20260507221504 | 9 | 0 | 0.0 | 0.0 | 0.00 | 0.00 | 0.00 | 81 | 1013.0 |
| 20260507221005 | 9 | 0 | 0.0 | 0.0 | 0.00 | 0.00 | 0.00 | 81 | 1013.1 |
| 20260507220503 | 9 | 0 | 0.0 | 0.0 | 0.00 | 0.00 | 0.00 | 81 | 1013.0 |
| 20260507220005 | 9 | 0 | 0.0 | 0.0 | 0.00 | 0.00 | 0.00 | 81 | 1013.0 |
| 20260507215504 | 9 | 0 | 0.0 | 0.0 | 0.00 | 0.00 | 0.00 | 81 | 1013.1 |
| 20260507215006 | 9 | 0 | 0.0 | 0.0 | 0.00 | 0.00 | 0.00 | 81 | 1013.1 |
| 20260507214505 | 9 | 0 | 0.0 | 0.0 | 0.00 | 0.00 | 0.00 | 82 | 1013.1 |
| 20260507214006 | 9 | 0 | 0.0 | 0.0 | 0.00 | 0.00 | 0.00 | 82 | 1013.1 |
| 20260507213505 | 9 | 0 | 0.0 | 0.0 | 0.00 | 0.00 | 0.00 | 82 | 1013.0 |
| 20260507212505 | 9 | 197 | 0.0 | 3.2 | 0.00 | 0.00 | 0.00 | 82 | 1012.9 |
| 20260507211506 | 10 | 204 | 0.0 | 1.6 | 0.00 | 0.00 | 0.00 | 81 | 1012.9 |
| 20260507211006 | 10 | 204 | 0.0 | 1.6 | 0.00 | 0.00 | 0.00 | 81 | 1012.9 |
| 20260507210505 | 10 | 205 | 0.0 | 1.6 | 0.00 | 0.00 | 0.00 | 81 | 1012.9 |
| 20260507210007 | 10 | 0 | 0.0 | 0.0 | 0.00 | 0.00 | 0.00 | 80 | 1012.7 |
| 20260507205505 | 10 | 0 | 0.0 | 0.0 | 0.00 | 0.00 | 0.00 | 80 | 1012.8 |
| 20260507205006 | 10 | 0 | 0.0 | 0.0 | 0.00 | 0.00 | 0.00 | 79 | 1012.7 |
| 20260507204505 | 10 | 0 | 0.0 | 0.0 | 0.00 | 0.00 | 0.00 | 79 | 1012.6 |
| 20260507204006 | 10 | 215 | 0.0 | 1.6 | 0.00 | 0.00 | 0.00 | 79 | 1012.5 |
| 20260507203506 | 10 | 215 | 1.6 | 6.4 | 0.00 | 0.00 | 0.00 | 79 | 1012.5 |
| 20260507203006 | 10 | 214 | 1.6 | 6.4 | 0.00 | 0.00 | 0.00 | 79 | 1012.5 |
| 20260507202506 | 10 | 215 | 1.6 | 8.0 | 0.00 | 0.00 | 0.00 | 78 | 1012.4 |
| 20260507202006 | 10 | 219 | 3.2 | 8.0 | 0.00 | 0.00 | 0.00 | 78 | 1012.4 |
| 20260507201505 | 10 | 225 | 3.2 | 8.0 | 0.00 | 0.00 | 0.00 | 78 | 1012.3 |
| 20260507200505 | 10 | 229 | 3.2 | 9.7 | 0.00 | 0.00 | 0.00 | 77 | 1012.2 |
| 20260507200007 | 10 | 220 | 3.2 | 8.0 | 0.00 | 0.00 | 0.00 | 77 | 1012.1 |
| 20260507195505 | 10 | 227 | 4.8 | 9.7 | 0.00 | 0.00 | 0.00 | 77 | 1012.0 |
| 20260507195006 | 10 | 227 | 4.8 | 12.9 | 0.00 | 0.00 | 0.00 | 76 | 1012.0 |
| 20260507194506 | 10 | 230 | 4.8 | 12.9 | 0.00 | 0.00 | 0.00 | 76 | 1011.9 |
| 20260507194006 | 11 | 239 | 6.4 | 16.1 | 0.00 | 0.00 | 0.00 | 75 | 1011.9 |
| 20260507193506 | 11 | 238 | 4.8 | 16.1 | 0.00 | 0.00 | 0.00 | 75 | 1011.9 |
| 20260507193006 | 11 | 233 | 4.8 | 11.3 | 0.00 | 0.00 | 0.00 | 75 | 1011.9 |
| 20260507192505 | 11 | 234 | 4.8 | 17.7 | 0.00 | 0.00 | 0.00 | 75 | 1011.9 |
| 20260507192005 | 11 | 234 | 4.8 | 17.7 | 0.00 | 0.00 | 0.00 | 74 | 1011.9 |
| 20260507191505 | 11 | 234 | 4.8 | 12.9 | 0.00 | 0.00 | 0.00 | 74 | 1011.8 |
| 20260507191006 | 11 | 232 | 4.8 | 12.9 | 0.00 | 0.00 | 0.00 | 74 | 1011.8 |
| 20260507190505 | 11 | 229 | 3.2 | 12.9 | 0.00 | 0.00 | 0.00 | 74 | 1011.7 |
| 20260507190006 | 11 | 231 | 3.2 | 14.5 | 0.00 | 0.00 | 0.00 | 73 | 1011.6 |
| 20260507185006 | 11 | 223 | 3.2 | 11.3 | 0.00 | 0.00 | 0.00 | 73 | 1011.6 |
| 20260507184505 | 11 | 207 | 3.2 | 9.7 | 0.00 | 0.00 | 0.00 | 73 | 1011.6 |
| 20260507184008 | 11 | 207 | 3.2 | 9.7 | 0.00 | 0.00 | 0.00 | 72 | 1011.6 |
| 20260507183007 | 11 | 214 | 3.2 | 12.9 | 0.00 | 0.00 | 0.00 | 72 | 1011.5 |
| 20260507182505 | 11 | 220 | 4.8 | 14.5 | 0.00 | 0.00 | 0.00 | 71 | 1011.5 |
| 20260507182006 | 11 | 221 | 4.8 | 14.5 | 0.00 | 0.00 | 0.00 | 71 | 1011.6 |
| 20260507181505 | 11 | 223 | 4.8 | 16.1 | 0.00 | 0.00 | 0.00 | 70 | 1011.5 |
| 20260507181007 | 11 | 223 | 4.8 | 16.1 | 0.00 | 0.00 | 0.00 | 70 | 1011.4 |
| 20260507180006 | 11 | 225 | 4.8 | 14.5 | 0.00 | 0.00 | 0.00 | 71 | 1011.5 |
| 20260507175505 | 11 | 234 | 4.8 | 14.5 | 0.00 | 0.00 | 0.00 | 70 | 1011.4 |
| 20260507175007 | 11 | 236 | 4.8 | 14.5 | 0.00 | 0.00 | 0.00 | 70 | 1011.4 |
| 20260507174505 | 11 | 232 | 4.8 | 14.5 | 0.00 | 0.00 | 0.00 | 70 | 1011.5 |
| 20260507174006 | 12 | 232 | 4.8 | 19.3 | 0.00 | 0.00 | 0.00 | 70 | 1011.5 |
| 20260507173505 | 12 | 231 | 4.8 | 19.3 | 0.00 | 0.00 | 0.00 | 69 | 1011.5 |
| 20260507173007 | 12 | 231 | 4.8 | 14.5 | 0.00 | 0.00 | 0.00 | 70 | 1011.5 |
| 20260507172007 | 12 | 236 | 6.4 | 16.1 | 0.00 | 0.00 | 0.00 | 69 | 1011.4 |
| 20260507171505 | 12 | 234 | 3.2 | 11.3 | 0.00 | 0.00 | 0.00 | 69 | 1011.4 |
| 20260507171006 | 12 | 228 | 3.2 | 11.3 | 0.00 | 0.00 | 0.00 | 69 | 1011.5 |
| 20260507170006 | 12 | 228 | 4.8 | 17.7 | 0.00 | 0.00 | 0.00 | 69 | 1011.5 |
| 20260507165504 | 12 | 236 | 6.4 | 17.7 | 0.00 | 0.00 | 0.00 | 69 | 1011.5 |
| 20260507165005 | 12 | 238 | 6.4 | 17.7 | 0.00 | 0.00 | 0.00 | 68 | 1011.5 |
| 20260507164505 | 12 | 231 | 4.8 | 11.3 | 0.00 | 0.00 | 0.00 | 69 | 1011.5 |
| 20260507164007 | 12 | 233 | 4.8 | 12.9 | 0.00 | 0.00 | 0.00 | 69 | 1011.5 |
| 20260507163505 | 12 | 233 | 6.4 | 17.7 | 0.00 | 0.00 | 0.00 | 68 | 1011.4 |
| 20260507163007 | 12 | 237 | 6.4 | 17.7 | 0.00 | 0.00 | 0.00 | 67 | 1011.3 |
| 20260507162505 | 12 | 236 | 6.4 | 14.5 | 0.00 | 0.00 | 0.00 | 66 | 1011.3 |
| 20260507162007 | 13 | 234 | 8.0 | 16.1 | 0.00 | 0.00 | 0.00 | 64 | 1011.3 |
| 20260507161505 | 13 | 235 | 6.4 | 16.1 | 0.00 | 0.00 | 0.00 | 63 | 1011.2 |
| 20260507161006 | 13 | 236 | 6.4 | 14.5 | 0.00 | 0.00 | 0.00 | 62 | 1011.2 |
| 20260507160505 | 13 | 252 | 6.4 | 12.9 | 0.00 | 0.00 | 0.00 | 59 | 1011.2 |
| 20260507160005 | 13 | 269 | 6.4 | 12.9 | 0.00 | 0.00 | 0.00 | 59 | 1011.1 |
| 20260507155504 | 13 | 270 | 6.4 | 14.5 | 0.00 | 0.00 | 0.00 | 58 | 1011.2 |
| 20260507155007 | 13 | 269 | 6.4 | 14.5 | 0.00 | 0.00 | 0.00 | 57 | 1011.1 |
| 20260507154505 | 13 | 260 | 6.4 | 14.5 | 0.00 | 0.00 | 0.00 | 58 | 1011.2 |
| 20260507154006 | 13 | 254 | 4.8 | 11.3 | 0.00 | 0.00 | 0.00 | 58 | 1011.1 |
| 20260507153505 | 13 | 264 | 6.4 | 14.5 | 0.00 | 0.00 | 0.00 | 59 | 1011.1 |
| 20260507153006 | 13 | 264 | 6.4 | 14.5 | 0.00 | 0.00 | 0.00 | 58 | 1011.2 |
| 20260507152505 | 13 | 251 | 4.8 | 12.9 | 0.00 | 0.00 | 0.00 | 58 | 1011.2 |
| 20260507152006 | 13 | 243 | 6.4 | 14.5 | 0.00 | 0.00 | 0.00 | 58 | 1011.2 |
| 20260507151505 | 14 | 254 | 6.4 | 14.5 | 0.00 | 0.00 | 0.00 | 56 | 1011.2 |
| 20260507151006 | 14 | 253 | 6.4 | 14.5 | 0.00 | 0.00 | 0.00 | 57 | 1011.1 |
| 20260507150505 | 14 | 245 | 6.4 | 14.5 | 0.00 | 0.00 | 0.00 | 57 | 1011.1 |
| 20260507145504 | 14 | 235 | 4.8 | 14.5 | 0.00 | 0.00 | 0.00 | 54 | 1011.1 |
| 20260507144505 | 14 | 245 | 6.4 | 12.9 | 0.00 | 0.00 | 0.00 | 56 | 1011.1 |
| 20260507143505 | 14 | 235 | 6.4 | 16.1 | 0.00 | 0.00 | 0.00 | 55 | 1011.2 |
| 20260507143005 | 15 | 243 | 6.4 | 14.5 | 0.00 | 0.00 | 0.00 | 53 | 1011.2 |
| 20260507142006 | 14 | 261 | 4.8 | 12.9 | 0.00 | 0.00 | 0.00 | 56 | 1011.2 |
| 20260507141505 | 14 | 259 | 4.8 | 11.3 | 0.00 | 0.00 | 0.00 | 57 | 1011.2 |
| 20260507141007 | 14 | 254 | 4.8 | 12.9 | 0.00 | 0.00 | 0.00 | 57 | 1011.3 |
| 20260507140505 | 14 | 256 | 4.8 | 12.9 | 0.00 | 0.00 | 0.00 | 56 | 1011.3 |
| 20260507140007 | 14 | 257 | 4.8 | 12.9 | 0.00 | 0.00 | 0.00 | 55 | 1011.4 |
| 20260507135505 | 14 | 263 | 6.4 | 17.7 | 0.00 | 0.00 | 0.00 | 55 | 1011.4 |
| 20260507135005 | 14 | 266 | 6.4 | 17.7 | 0.00 | 0.00 | 0.00 | 56 | 1011.4 |
| 20260507134505 | 14 | 246 | 4.8 | 14.5 | 0.00 | 0.00 | 0.00 | 55 | 1011.4 |
| 20260507134007 | 14 | 216 | 3.2 | 11.3 | 0.00 | 0.00 | 0.00 | 55 | 1011.4 |
| 20260507133505 | 14 | 227 | 4.8 | 14.5 | 0.00 | 0.00 | 0.00 | 52 | 1011.4 |
| 20260507132504 | 14 | 239 | 4.8 | 12.9 | 0.00 | 0.00 | 0.00 | 54 | 1011.6 |
| 20260507132006 | 14 | 245 | 3.2 | 11.3 | 0.00 | 0.00 | 0.00 | 54 | 1011.5 |
| 20260507131505 | 15 | 235 | 4.8 | 12.9 | 0.00 | 0.00 | 0.00 | 56 | 1011.4 |
| 20260507131007 | 15 | 232 | 4.8 | 12.9 | 0.00 | 0.00 | 0.00 | 54 | 1011.5 |
| 20260507130505 | 14 | 235 | 6.4 | 12.9 | 0.00 | 0.00 | 0.00 | 59 | 1011.5 |
| 20260507130006 | 13 | 239 | 8.0 | 20.9 | 0.00 | 0.00 | 0.00 | 56 | 1011.6 |
| 20260507125505 | 14 | 237 | 6.4 | 20.9 | 0.00 | 0.00 | 0.00 | 55 | 1011.6 |
| 20260507124505 | 13 | 228 | 6.4 | 17.7 | 0.00 | 0.00 | 0.00 | 57 | 1011.7 |
| 20260507124006 | 13 | 243 | 8.0 | 17.7 | 0.00 | 0.00 | 0.00 | 58 | 1011.7 |
| 20260507123505 | 13 | 240 | 8.0 | 20.9 | 0.00 | 0.00 | 0.00 | 59 | 1011.7 |
| 20260507123005 | 14 | 231 | 8.0 | 20.9 | 0.00 | 0.00 | 0.00 | 58 | 1011.6 |
| 20260507122504 | 14 | 237 | 8.0 | 19.3 | 0.00 | 0.00 | 0.00 | 60 | 1011.8 |
| 20260507122005 | 13 | 237 | 6.4 | 19.3 | 0.00 | 0.00 | 0.00 | 60 | 1011.7 |
| 20260507121005 | 13 | 222 | 6.4 | 12.9 | 0.00 | 0.00 | 0.00 | 60 | 1011.7 |
| 20260507120505 | 13 | 220 | 6.4 | 12.9 | 0.00 | 0.00 | 0.00 | 61 | 1011.7 |
| 20260507120005 | 13 | 225 | 4.8 | 12.9 | 0.00 | 0.00 | 0.00 | 60 | 1011.7 |
| 20260507115504 | 13 | 237 | 6.4 | 17.7 | 0.00 | 0.00 | 0.00 | 61 | 1011.7 |
| 20260507115005 | 13 | 235 | 6.4 | 17.7 | 0.00 | 0.00 | 0.00 | 63 | 1011.8 |
| 20260507114505 | 13 | 236 | 6.4 | 14.5 | 0.00 | 0.00 | 0.00 | 61 | 1011.7 |
| 20260507114006 | 13 | 236 | 6.4 | 14.5 | 0.00 | 0.00 | 0.00 | 63 | 1011.9 |
| 20260507113505 | 13 | 229 | 6.4 | 14.5 | 0.00 | 0.00 | 0.00 | 63 | 1011.8 |
| 20260507113006 | 13 | 224 | 4.8 | 16.1 | 0.00 | 0.00 | 0.00 | 63 | 1011.8 |
| 20260507112505 | 13 | 225 | 4.8 | 16.1 | 0.00 | 0.00 | 0.00 | 66 | 1011.9 |
| 20260507111506 | 13 | 165 | 3.2 | 9.7 | 0.00 | 0.00 | 0.00 | 71 | 1011.9 |
| 20260507111005 | 12 | 149 | 3.2 | 11.3 | 0.00 | 0.00 | 0.00 | 73 | 1011.9 |
| 20260507105504 | 12 | 158 | 3.2 | 9.7 | 0.00 | 0.00 | 0.00 | 73 | 1011.9 |
| 20260507104505 | 11 | 144 | 3.2 | 9.7 | 0.00 | 0.00 | 0.00 | 77 | 1012.0 |
| 20260507104005 | 11 | 153 | 3.2 | 9.7 | 0.00 | 0.00 | 0.00 | 77 | 1012.0 |
| 20260507103505 | 11 | 142 | 3.2 | 9.7 | 0.00 | 0.00 | 0.00 | 76 | 1012.1 |
| 20260507102505 | 11 | 148 | 3.2 | 9.7 | 0.00 | 0.00 | 0.00 | 78 | 1012.1 |
| 20260507102007 | 11 | 139 | 3.2 | 11.3 | 0.00 | 0.00 | 0.00 | 78 | 1012.0 |
| 20260507101506 | 11 | 127 | 4.8 | 16.1 | 0.00 | 0.00 | 0.00 | 79 | 1012.1 |